timestamp,surface_pressure_avg,surface_temp_avg,battery_voltage,lat,long
2019-04-15 00:00:00+00:00,239.8447,1.0,13.05,47.84626,-54.09684
2019-04-15 00:10:00+00:00,238.9764,1.0,12.89,47.84626,-54.09684
2019-04-15 00:20:00+00:00,239.3014,1.0,12.97,47.84626,-54.09684
2019-04-15 00:30:00+00:00,232.9715,1.1,12.97,47.84626,-54.09684
2019-04-15 00:40:00+00:00,230.5598,1.2,12.97,47.84626,-54.09684
2019-04-15 00:50:00+00:00,232.3048,1.25,12.97,47.84626,-54.09684
2019-04-15 01:00:00+00:00,228.6231,1.3,12.89,47.84626,-54.09684
2019-04-15 01:10:00+00:00,225.3014,1.4,12.81,47.84626,-54.09684
2019-04-15 01:20:00+00:00,229.5764,1.47,12.97,47.84626,-54.09684
2019-04-15 01:30:00+00:00,234.7331,1.5,12.97,47.84626,-54.09684
2019-04-15 01:40:00+00:00,234.0147,1.58,12.97,47.84626,-54.09684
2019-04-15 01:50:00+00:00,226.9781,1.6,12.97,47.84626,-54.09684
2019-04-15 02:00:00+00:00,227.4347,1.6,12.89,47.84626,-54.09684
2019-04-15 02:10:00+00:00,233.7181,1.5,12.81,47.84626,-54.09684
2019-04-15 02:20:00+00:00,234.7414,1.39,12.89,47.84626,-54.09684
2019-04-15 02:30:00+00:00,226.4181,1.35,12.89,47.84626,-54.09684
2019-04-15 02:40:00+00:00,226.6148,1.27,12.97,47.84626,-54.09684
2019-04-15 02:50:00+00:00,233.5814,1.19,12.97,47.84626,-54.09684
2019-04-15 03:00:00+00:00,230.8814,1.2,12.89,47.84626,-54.09684
2019-04-15 03:10:00+00:00,224.4198,1.2,12.81,47.84626,-54.09684
2019-04-15 03:20:00+00:00,233.9364,1.21,12.89,47.84626,-54.09684
2019-04-15 03:30:00+00:00,239.5481,1.25,12.89,47.84626,-54.09684
2019-04-15 03:40:00+00:00,237.8131,1.28,12.89,47.84626,-54.09684
2019-04-15 03:50:00+00:00,246.1397,1.3,12.89,47.84626,-54.09684
2019-04-15 04:00:00+00:00,260.3414,1.25,12.81,47.84626,-54.09684
2019-04-15 04:10:00+00:00,261.2498,1.25,12.73,47.84626,-54.09684
2019-04-15 04:20:00+00:00,262.6414,1.29,12.89,47.84626,-54.09684
2019-04-15 04:30:00+00:00,275.4948,1.2,12.89,47.84626,-54.09684
2019-04-15 04:50:00+00:00,285.9264,1.2,12.89,47.84626,-54.09684
2019-04-15 05:00:00+00:00,289.1097,1.23,12.81,47.84626,-54.09684
2019-04-15 05:10:00+00:00,301.2164,1.2,12.73,47.84626,-54.09684
2019-04-15 05:20:00+00:00,313.433,1.17,12.81,47.84626,-54.09684
2019-04-15 05:30:00+00:00,316.813,1.2,12.81,47.84626,-54.09684
2019-04-15 05:40:00+00:00,323.473,1.2,12.89,47.84626,-54.09684
2019-04-15 05:50:00+00:00,329.2064,1.18,12.89,47.84626,-54.09684
2019-04-15 06:00:00+00:00,332.503,1.1,12.81,47.84626,-54.09684
2019-04-15 06:10:00+00:00,334.5197,1.1,12.73,47.84626,-54.09684
2019-04-15 06:20:00+00:00,338.2546,1.1,12.81,47.84626,-54.09684
2019-04-15 06:30:00+00:00,343.7447,0.99,12.81,47.84626,-54.09684
2019-04-15 06:40:00+00:00,347.3762,0.97,12.81,47.84626,-54.09684
2019-04-15 06:50:00+00:00,344.3446,1.0,12.81,47.84626,-54.09684
2019-04-15 07:00:00+00:00,344.4729,1.0,12.73,47.84626,-54.09684
2019-04-15 07:10:00+00:00,348.6246,0.9,12.73,47.84626,-54.09684
2019-04-15 07:20:00+00:00,354.9113,0.83,12.81,47.84626,-54.09684
2019-04-15 07:30:00+00:00,353.9312,0.89,12.81,47.84626,-54.09684
2019-04-15 07:40:00+00:00,355.4913,0.9,12.81,47.84626,-54.09684
2019-04-15 07:50:00+00:00,361.843,0.88,12.81,47.84626,-54.09684
2019-04-15 08:00:00+00:00,358.8246,0.88,12.73,47.84626,-54.09684
2019-04-15 08:10:00+00:00,354.3096,0.9,12.65,47.84626,-54.09684
2019-04-15 08:20:00+00:00,356.0713,0.9,12.73,47.84626,-54.09684
2019-04-15 08:30:00+00:00,360.1846,0.88,12.73,47.84626,-54.09684
2019-04-15 08:40:00+00:00,356.0762,0.88,12.81,47.84626,-54.09684
2019-04-15 08:50:00+00:00,350.8264,0.9,12.81,47.84626,-54.09684
2019-04-15 09:00:00+00:00,343.9763,0.9,12.73,47.84626,-54.09684
2019-04-15 09:10:00+00:00,339.3863,0.9,12.65,47.84626,-54.09684
2019-04-15 09:20:00+00:00,335.2647,0.9,12.81,47.84626,-54.09684
2019-04-15 09:30:00+00:00,332.3413,0.9,13.05,47.84626,-54.09684
2019-04-15 09:40:00+00:00,330.7764,0.9,13.29,47.84626,-54.09684
2019-04-15 09:50:00+00:00,318.8563,0.96,13.37,47.84626,-54.09684
2019-04-15 10:00:00+00:00,314.248,1.0,13.37,47.84626,-54.09684
2019-04-15 10:10:00+00:00,313.9947,1.0,13.6,47.84626,-54.09684
2019-04-15 10:20:00+00:00,314.0179,0.98,14.0,47.84626,-54.09684
2019-04-15 10:30:00+00:00,306.5297,1.0,14.32,47.84626,-54.09684
2019-04-15 10:40:00+00:00,297.808,1.0,14.64,47.84626,-54.09684
2019-04-15 10:50:00+00:00,291.9097,1.0,14.8,47.84626,-54.09684
2019-04-15 11:00:00+00:00,286.1664,1.0,14.8,47.84626,-54.09684
2019-04-15 11:10:00+00:00,278.8613,1.0,14.88,47.84626,-54.09684
2019-04-15 11:20:00+00:00,273.203,1.03,14.96,47.84626,-54.09684
2019-04-15 11:30:00+00:00,273.5114,1.0,14.96,47.84626,-54.09684
2019-04-15 11:40:00+00:00,271.8864,1.0,14.96,47.84626,-54.09684
2019-04-15 11:50:00+00:00,262.0831,1.0,14.96,47.84626,-54.09684
2019-04-15 12:00:00+00:00,255.7214,0.99,14.8,47.84626,-54.09684
2019-04-15 12:10:00+00:00,248.1814,0.98,14.8,47.84626,-54.09684
2019-04-15 12:20:00+00:00,243.6848,0.99,14.88,47.84626,-54.09684
2019-04-15 12:30:00+00:00,238.7865,1.0,14.8,47.84626,-54.09684
2019-04-15 12:40:00+00:00,236.0764,1.0,14.64,47.84626,-54.09684
2019-04-15 12:50:00+00:00,229.4865,1.06,14.64,47.84626,-54.09684
2019-04-15 13:00:00+00:00,226.2881,1.1,14.56,47.84626,-54.09684
2019-04-15 13:10:00+00:00,224.4381,1.16,14.4,47.84626,-54.09684
2019-04-15 13:20:00+00:00,222.0697,1.2,14.64,47.84626,-54.09684
2019-04-15 13:30:00+00:00,219.5898,1.2,14.8,47.84626,-54.09684
2019-04-15 13:40:00+00:00,213.3347,1.2,14.8,47.84626,-54.09684
2019-04-15 13:50:00+00:00,211.1981,1.25,14.72,47.84626,-54.09684
2019-04-15 14:00:00+00:00,214.2281,1.24,14.64,47.84626,-54.09684
2019-04-15 14:10:00+00:00,217.7198,1.2,14.64,47.84626,-54.09684
2019-04-15 14:20:00+00:00,216.5998,1.2,14.72,47.84626,-54.09684
2019-04-15 14:30:00+00:00,214.0497,1.18,14.64,47.84626,-54.09684
2019-04-15 14:40:00+00:00,212.0764,1.1,14.64,47.84626,-54.09684
2019-04-15 14:50:00+00:00,211.9681,1.15,14.64,47.84626,-54.09684
2019-04-15 15:00:00+00:00,216.5381,1.1,14.56,47.84626,-54.09684
2019-04-15 15:10:00+00:00,223.4747,0.9,14.56,47.84626,-54.09684
2019-04-15 15:20:00+00:00,223.2765,0.89,14.72,47.84626,-54.09684
2019-04-15 15:30:00+00:00,220.7031,1.04,14.72,47.84626,-54.09684
2019-04-15 15:40:00+00:00,224.3481,1.1,14.64,47.84626,-54.09684
2019-04-15 15:50:00+00:00,226.8514,1.0,14.64,47.84626,-54.09684
2019-04-15 16:00:00+00:00,227.3281,0.98,14.48,47.84626,-54.09684
2019-04-15 16:10:00+00:00,228.4847,1.0,14.4,47.84626,-54.09684
2019-04-15 16:20:00+00:00,227.5215,1.0,14.48,47.84626,-54.09684
2019-04-15 16:30:00+00:00,229.3831,0.9,14.4,47.84626,-54.09684
2019-04-15 16:40:00+00:00,237.4414,0.8,14.32,47.84626,-54.09684
2019-04-15 16:50:00+00:00,239.1797,0.7,14.32,47.84626,-54.09684
2019-04-15 17:00:00+00:00,243.1998,0.7,14.16,47.84626,-54.09684
2019-04-15 17:10:00+00:00,254.9531,0.74,14.08,47.84626,-54.09684
2019-04-15 17:20:00+00:00,270.2264,0.79,14.08,47.84626,-54.09684
2019-04-15 17:30:00+00:00,270.1481,0.8,14.08,47.84626,-54.09684
2019-04-15 17:40:00+00:00,272.3931,0.8,14.16,47.84626,-54.09684
2019-04-15 17:50:00+00:00,279.6047,0.8,14.16,47.84626,-54.09684
2019-04-15 18:00:00+00:00,289.2547,0.71,14.16,47.84626,-54.09684
2019-04-15 18:10:00+00:00,289.4314,0.7,14.08,47.84626,-54.09684
2019-04-15 18:20:00+00:00,295.6697,0.7,14.16,47.84626,-54.09684
2019-04-15 18:30:00+00:00,298.7113,0.69,14.16,47.84626,-54.09684
2019-04-15 18:40:00+00:00,304.233,0.6,14.16,47.84626,-54.09684
2019-04-15 18:50:00+00:00,304.538,0.6,14.16,47.84626,-54.09684
2019-04-15 19:00:00+00:00,313.8646,0.6,14.08,47.84626,-54.09684
2019-04-15 19:10:00+00:00,319.188,0.6,13.92,47.84626,-54.09684
2019-04-15 19:20:00+00:00,325.033,0.67,14.0,47.84626,-54.09684
2019-04-15 19:30:00+00:00,320.8314,0.7,14.0,47.84626,-54.09684
2019-04-15 19:40:00+00:00,326.3713,0.7,13.92,47.84626,-54.09684
2019-04-15 19:50:00+00:00,327.2614,0.74,13.92,47.84626,-54.09684
2019-04-15 20:00:00+00:00,327.4513,0.79,13.84,47.84626,-54.09684
2019-04-15 20:10:00+00:00,327.2446,0.8,13.68,47.84626,-54.09684
2019-04-15 20:20:00+00:00,328.2096,0.8,13.68,47.84626,-54.09684
2019-04-15 20:30:00+00:00,327.748,0.8,13.68,47.84626,-54.09684
2019-04-15 20:40:00+00:00,332.0713,0.8,13.6,47.84626,-54.09684
2019-04-15 20:50:00+00:00,343.863,0.8,13.6,47.84626,-54.09684
2019-04-15 21:00:00+00:00,339.9646,0.8,13.44,47.84626,-54.09684
2019-04-15 21:10:00+00:00,337.8047,0.81,13.29,47.84626,-54.09684
2019-04-15 21:20:00+00:00,339.4229,0.86,13.29,47.84626,-54.09684
2019-04-15 21:30:00+00:00,335.0812,0.9,13.29,47.84626,-54.09684
2019-04-15 21:40:00+00:00,332.2463,0.9,13.29,47.84626,-54.09684
2019-04-15 21:50:00+00:00,329.7313,0.9,13.29,47.84626,-54.09684
2019-04-15 22:00:00+00:00,332.313,0.9,13.21,47.84626,-54.09684
2019-04-15 22:10:00+00:00,334.908,1.08,13.05,47.84626,-54.09684
2019-04-15 22:20:00+00:00,320.9313,1.2,13.05,47.84626,-54.09684
2019-04-15 22:30:00+00:00,305.4597,1.3,13.05,47.84626,-54.09684
2019-04-15 22:40:00+00:00,305.3197,1.3,13.05,47.84626,-54.09684
2019-04-15 22:50:00+00:00,297.0431,1.3,13.05,47.84626,-54.09684
2019-04-15 23:00:00+00:00,284.2581,1.3,12.97,47.84626,-54.09684
2019-04-15 23:10:00+00:00,274.0648,1.3,12.81,47.84626,-54.09684
2019-04-15 23:20:00+00:00,269.9247,1.23,12.97,47.84626,-54.09684
2019-04-15 23:30:00+00:00,257.0714,1.2,12.97,47.84626,-54.09684
2019-04-15 23:40:00+00:00,249.1131,1.21,12.97,47.84626,-54.09684
2019-04-15 23:50:00+00:00,252.3148,1.2,12.97,47.84626,-54.09684
